Showing default

LEMUR 2 KADI, 43184

Orbit data source: Space-Track

LEMUR 2 KADI, 43184 is a payload satellite owned by Spire (US) in SSO that was launched on Thu, 01 Feb 2018 UTC via a SOYUZ-2-1A launch vehicle from the Vostochny Cosmodrome (VOSTO). Payload-class satellites include a variety of spacecraft equipped with specific instruments for various scientific and technological missions. These include communications satellites like Starlink; space stations such as the ISS; scientific satellites like the Hubble; Earth observation satellites from companies like Planet Labs, Umbra, and HawkEye 360; GPS; miniature CubeSats for education and research; and military/defense satellites.

Not visible in the next 10 days
Identifier
43184, 2018-014E
Orbit
SSO
Country
Flag of USUS
Related business
Manufacturer
Spire/Glasgow
Mission
Operational Commercial Com/MetRO
Bus & Motor
CUBESAT 3U, Unknown motor
Mass
4.6 kg wet, 4.6 kg dry
Launch date (UTC)
2018-02-01 (8 years ago)
Launch vehicle
SOYUZ-2-1A
Launch site
Vostochny Cosmodrome (VOSTO)
Object type
Payload
Rocket body
Debris
Shape & HBR
Box + 2 Pan, 0.5 m
Radar Cross Section
0.124 m², Medium (>0.1 m² and < 1m²)

Expand to show TLE details & history
Last TLE update: 23 hours ago

TLE from 23 hours ago
0 LEMUR 2 KADI
1 43184U 18014E   26150.34943666  .01393900  11616-2  22036-2 0  9996
2 43184  97.4397  81.2697 0007246 176.2512 183.8824 16.04082884458256
Epoch: 2026-05-30T08:23Z
TLE epoch observation values (Epoch: 2026-05-30T08:23:11.327Z)
Latitude
-0°
Longitude
67.60577°
Altitude
271.13 km
Speed
7.742 km/s
True Right ascension
05h 25m 04s
True Declination
0° 00' 00"
Sunlit
Object was in daylight at epoch
Visualization orbit readout
Latitude
Unknown
Longitude
Unknown
Altitude
Unknown
Speed
Unknown
Apparent Right ascension
Unknown
Apparent Declination
Unknown
Sunlit
N/A
Visualization observer readout
Local Sidereal Time
16:51:51
Azimuth
Unknown
Elevation
Unknown
Doppler factor
Unknown
Orbital elements
Apogee altitude
264.792 km
Perigee altitude
255.172 km
Semi-major axis
6,638.119 km
Eccentricity
0.00072
Inclination
97.4397°
RAAN
81.2697°
Arg. of periapsis
176.2512°
True anomaly
183.87678°
Mean anomaly
183.8824°
Eccentric anomaly
183.87959°
Mean motion
4.01306 °/min
Orbital period
89.71 mins
BSTAR
0.0022036
Loading maneuver chart data...
Computing Atmospheric mass density...
Loading historical data...
Loading historical data...
Loading historical data...
Loading historical data...
Loading historical data...
Loading historical data...
Loading historical data...

Documentation

Showing up to 5 results
|